Location: Gunnison Valley Observatory
(38.5087°N, 106.9386°W)
Time: 04:13:15
(UTC-06:00)

Amateur Radio Satellites - All Passes

Search period start: 26 August 2016 03:43
Search period end: 27 August 2016 03:43
Location: Gunnison Valley Observatory, 38.5087°N, 106.9386°W

Satellite Date Start Highest point End Downlink Frequencies (MHz)
Time Altitude Azimuth
Oscar 19 26 Aug 03:51:03 03:54:57 22° 295° (WNW) 03:58:51 437.125/150
MOZHAYETS 4 26 Aug 03:57:09 04:01:39 63° 75° (ENE) 04:06:11
PHONESAT 2.4 26 Aug 04:05:10 04:08:09 84° 346° (NNW) 04:11:10 2401.200-2431.200
KKS-1 26 Aug 04:05:14 04:09:39 62° 74° (ENE) 04:14:06 437.445
Cosmos 2491 26 Aug 04:06:18 04:09:58 13° 60° (ENE) 04:13:38 435.465 / 435.565
ITUPSAT 1 26 Aug 04:16:10 04:18:08 12° 269° (W) 04:20:04 437.325
STARS 26 Aug 04:46:17 04:50:44 86° 73° (ENE) 04:55:12 437.465
Gurwin Techsat 1B 26 Aug 04:47:05 04:50:06 16° 298° (WNW) 04:53:06 435.225
AO-7 26 Aug 04:57:49 05:06:10 77° 106° (ESE) 05:14:27 29.400- 29.500
ITAMSAT 1 26 Aug 05:00:26 05:05:04 34° 291° (WNW) 05:09:41 435.822/435.867
RS-15 26 Aug 05:08:52 05:18:22 27° 332° (NNW) 05:28:14 29.354- 29.394
CUBESAT XI-V 26 Aug 05:12:11 05:16:35 48° 73° (ENE) 05:21:02 437.345
YUBILEINY 26 Aug 05:20:28 05:25:16 16° 77° (ENE) 05:30:05 435.215
HORYU 2 26 Aug 05:20:58 05:24:12 20° 94° (E) 05:27:25 437.375
MOZHAYETS 4 26 Aug 05:37:52 05:39:12 11° 270° (W) 05:40:33
PHONESAT 2.4 26 Aug 05:41:41 05:44:39 56° 3° (N) 05:47:36 2401.200-2431.200
KKS-1 26 Aug 05:45:20 05:46:36 11° 269° (W) 05:47:53 437.445
NOAA 15 26 Aug 05:57:02 05:59:06 12° 90° (E) 06:01:09 137.62
Cosmos 2491 26 Aug 05:59:42 06:08:33 71° 81° (E) 06:17:21 435.465 / 435.565
AO-85 26 Aug 06:01:51 06:07:07 63° 118° (ESE) 06:12:09 145.980
NOAA 18 26 Aug 06:14:25 06:16:36 12° 90° (E) 06:18:45 137.9125
GOMX 1 26 Aug 06:20:31 06:24:10 18° 90° (E) 06:27:41 467.674
BRITE-PL 26 Aug 06:33:46 06:39:23 56° 99° (E) 06:44:51 437.365/2234.400
LilacSat-2 26 Aug 06:38:52 06:41:45 21° 95° (E) 06:44:37 437.200
DOVE 4 26 Aug 06:39:14 06:39:26 10° 87° (E) 06:39:38 437.250
Cosmos 2504 26 Aug 06:40:55 06:46:22 19° 81° (E) 06:51:37 435.465 / 435.565
CUBESAT XI-V 26 Aug 06:51:35 06:54:13 15° 268° (W) 06:56:52 437.345
AO-7 26 Aug 06:51:54 06:58:05 24° 305° (NW) 07:04:15 29.400- 29.500
HORYU 2 26 Aug 06:56:50 07:00:49 34° 289° (WNW) 07:04:47 437.375
YUBILEINY 26 Aug 07:11:52 07:20:43 88° 96° (E) 07:29:37 435.215
Cubesat XI-IV 26 Aug 07:14:36 07:19:50 55° 101° (E) 07:25:01 437.490
PHONESAT 2.4 26 Aug 07:18:05 07:21:03 64° 200° (SSW) 07:24:01 2401.200-2431.200
STRAND 1 26 Aug 07:26:16 07:31:20 67° 74° (ENE) 07:36:25 437.568
CUTE-I 26 Aug 07:26:59 07:32:19 74° 103° (ESE) 07:37:36 437.470
RS-15 26 Aug 07:29:03 07:37:05 19° 8° (N) 07:45:11 29.354- 29.394
NOAA 15 26 Aug 07:34:04 07:39:23 75° 287° (WNW) 07:44:41 137.62
AO-85 26 Aug 07:44:09 07:47:58 20° 314° (NW) 07:51:38 145.980
NOAA 18 26 Aug 07:52:19 07:57:48 77° 286° (WNW) 08:03:14 137.9125
GOMX 1 26 Aug 07:57:16 08:02:33 53° 287° (WNW) 08:07:36 467.674
Cosmos 2491 26 Aug 07:58:06 08:04:27 23° 279° (W) 08:10:50 435.465 / 435.565
DOVE 4 26 Aug 08:12:39 08:17:46 79° 285° (WNW) 08:22:34 437.250
LilacSat-2 26 Aug 08:12:58 08:15:59 23° 290° (WNW) 08:18:59 437.200
BRITE-PL 26 Aug 08:13:13 08:17:20 21° 295° (WNW) 08:21:25 437.365/2234.400
SEEDS 26 Aug 08:25:46 08:28:42 18° 93° (E) 08:31:38 437.485
Cosmos 2504 26 Aug 08:30:18 08:38:53 79° 277° (W) 08:46:55 435.465 / 435.565
CANX-2 26 Aug 08:42:52 08:46:59 49° 99° (E) 08:51:06 2200.000
HO-68 26 Aug 08:47:59 08:54:58 52° 101° (E) 09:01:53 435.675
CUTE 1.7 + AOD 2 26 Aug 08:49:19 08:53:26 50° 100° (E) 08:57:33 437.475
PRISM 26 Aug 08:52:12 08:56:11 57° 74° (ENE) 09:00:13 437.425
PHONESAT 2.4 26 Aug 08:55:32 08:57:01 13° 214° (SSW) 08:58:31 2401.200-2431.200
Cubesat XI-IV 26 Aug 08:55:53 08:59:26 18° 297° (WNW) 09:02:58 437.490
SO-50 26 Aug 08:57:07 09:01:26 38° 52° (NE) 09:05:37 436.795
AAUSAT CUBESAT 2 26 Aug 09:01:23 09:04:50 25° 96° (E) 09:08:16 437.432
AIST 1 26 Aug 09:05:20 09:08:25 19° 87° (E) 09:11:32
CINEMA 3 26 Aug 09:05:54 09:10:28 78° 284° (WNW) 09:14:48 145.822/145.860
COMPASS 1 26 Aug 09:07:24 09:11:18 37° 98° (E) 09:15:11 437.405
STRAND 1 26 Aug 09:08:42 09:10:56 13° 269° (W) 09:13:12 437.568
CUTE-I 26 Aug 09:09:02 09:11:41 14° 299° (WNW) 09:14:21 437.470
YUBILEINY 26 Aug 09:13:01 09:18:42 18° 296° (WNW) 09:24:26 435.215
UNISAT 6 26 Aug 09:14:40 09:15:32 10° 63° (ENE) 09:16:24 437.425
Oscar 11 26 Aug 09:29:24 09:32:38 20° 94° (E) 09:35:50 145.826/435.025
FUNcube-1 26 Aug 09:34:38 09:37:45 20° 94° (E) 09:40:51 145.935
CUBEBUG 2 26 Aug 09:35:00 09:39:12 57° 100° (E) 09:43:16 437.445
UWE-3 26 Aug 09:36:18 09:40:12 37° 98° (E) 09:44:03 435.000/436.395/437.385
ISS 26 Aug 09:43:03 09:46:20 89° 146° (SE) 09:49:37 145.825
RS-15 26 Aug 09:43:19 09:54:39 39° 41° (NE) 10:05:50 29.354- 29.394
ANTELSAT 26 Aug 09:48:32 09:52:15 24° 69° (ENE) 09:55:55 437.575/2403.000
ZACube-1 26 Aug 09:54:35 09:58:28 38° 98° (E) 10:02:19 437.345
SEEDS 26 Aug 10:00:41 10:04:28 33° 288° (WNW) 10:08:15 437.485
TIGRISAT 26 Aug 10:19:05 10:23:32 49° 73° (ENE) 10:27:56 435.000
CANX-2 26 Aug 10:20:18 10:22:24 14° 294° (WNW) 10:24:30 2200.000
CUTE 1.7 + AOD 2 26 Aug 10:26:49 10:28:50 13° 295° (WNW) 10:30:52 437.475
BEESAT 2 26 Aug 10:26:55 10:30:31 35° 115° (ESE) 10:34:09 435.950
Cosmos 2504 26 Aug 10:29:24 10:33:25 14° 296° (WNW) 10:37:22 435.465 / 435.565
PRISM 26 Aug 10:31:41 10:31:50 10° 269° (W) 10:31:59 437.425
HO-68 26 Aug 10:36:20 10:42:17 29° 298° (WNW) 10:48:13 435.675
AAUSAT CUBESAT 2 26 Aug 10:36:51 10:40:12 24° 290° (WNW) 10:43:33 437.432
SO-50 26 Aug 10:38:11 10:41:37 21° 249° (WSW) 10:44:59 436.795
AIST 1 26 Aug 10:41:55 10:45:45 31° 283° (WNW) 10:49:39
CUSAT 1 26 Aug 10:42:19 10:48:34 57° 79° (E) 10:56:04 437.405
COMPASS 1 26 Aug 10:43:53 10:46:32 17° 293° (WNW) 10:49:12 437.405
QB50P2 26 Aug 10:46:01 10:48:26 15° 66° (ENE) 10:50:51 145.880/145.840
DUCHIFAT 1 26 Aug 10:46:27 10:48:10 12° 64° (ENE) 10:49:52 145.980
UNISAT 6 26 Aug 10:46:59 10:51:37 77° 257° (WSW) 10:56:11 437.425
BEESAT 3 26 Aug 10:48:01 10:51:53 61° 303° (WNW) 10:55:47 437.485
POLYITAN 1 26 Aug 10:48:29 10:50:58 15° 66° (ENE) 10:53:26 437.675
DELFI C3 26 Aug 10:53:24 10:57:24 81° 102° (ESE) 11:01:25 145.870
HUMSAT D 26 Aug 10:54:54 10:58:41 36° 98° (E) 11:02:27 437.325/437.525
NANOSAT C BR1 26 Aug 10:58:08 11:01:02 18° 67° (ENE) 11:03:55 145.865
Oscar 11 26 Aug 11:04:58 11:08:47 31° 289° (WNW) 11:12:35 145.826/435.025
FUNcube-1 26 Aug 11:10:26 11:14:00 28° 290° (WNW) 11:17:32 145.935
UWE-3 26 Aug 11:13:43 11:16:21 16° 294° (WNW) 11:18:57 435.000/436.395/437.385
CUBEBUG 2 26 Aug 11:13:52 11:15:16 11° 296° (WNW) 11:16:40 437.445
JAS-2 26 Aug 11:18:27 11:21:48 18° 62° (ENE) 11:25:17 435.910
AUBIESAT-1 26 Aug 11:20:24 11:21:32 11° 94° (E) 11:22:38 437.475
ISS 26 Aug 11:21:03 11:23:11 16° 338° (NNW) 11:25:20 145.825
M-CUBED/EXP-1 PRIME 26 Aug 11:23:30 11:26:03 16° 96° (E) 11:28:29 437.505
DANDE 26 Aug 11:24:08 11:29:17 48° 79° (E) 11:35:57 436.750
ANTELSAT 26 Aug 11:24:43 11:28:48 30° 263° (W) 11:32:50 437.575/2403.000
GONETS M04 26 Aug 11:28:58 11:35:54 27° 82° (E) 11:42:51
ZACube-1 26 Aug 11:31:53 11:34:26 16° 293° (WNW) 11:36:59 437.345
QB50P1 26 Aug 11:39:44 11:43:55 56° 74° (ENE) 11:48:07 145.935-145.965
Cosmos 2499 26 Aug 11:42:07 11:48:17 24° 84° (E) 11:54:08 435.465 / 435.565
BUGSAT 1 26 Aug 11:46:07 11:49:33 24° 69° (ENE) 11:52:59 437.445
POPSAT HIP 1 26 Aug 11:49:30 11:53:46 72° 76° (ENE) 11:58:03 437.405
RS-15 26 Aug 11:55:53 12:08:09 72° 245° (WSW) 12:20:08 29.354- 29.394
TIGRISAT 26 Aug 11:57:47 12:00:26 15° 268° (W) 12:03:04 435.000
PCSat 26 Aug 12:02:40 12:07:42 40° 111° (ESE) 12:12:45 145.827
BEESAT 2 26 Aug 12:05:30 12:08:26 20° 312° (NW) 12:11:24 435.950
50 SAT 26 Aug 12:10:20 12:12:55 18° 95° (E) 12:15:30 437.505
VELOX 1 26 Aug 12:12:45 12:16:16 22° 95° (E) 12:19:45 145.980
CUBEBUG 1 26 Aug 12:18:28 12:22:28 32° 97° (E) 12:26:25 437.445
DUCHIFAT 1 26 Aug 12:19:09 12:23:21 56° 260° (W) 12:27:33 145.980
QB50P2 26 Aug 12:19:43 12:23:50 45° 261° (W) 12:27:58 145.880/145.840
POLYITAN 1 26 Aug 12:22:16 12:26:22 45° 261° (W) 12:30:29 437.675
CUSAT 1 26 Aug 12:25:06 12:30:20 26° 270° (W) 12:36:18 437.405
AIST 2 26 Aug 12:25:38 12:29:04 27° 113° (ESE) 12:32:33 435.215
HUMSAT D 26 Aug 12:31:26 12:34:00 16° 293° (WNW) 12:36:36 437.325/437.525
NANOSAT C BR1 26 Aug 12:32:31 12:36:27 36° 262° (W) 12:40:25 145.865
DX 1 26 Aug 12:35:03 12:38:44 26° 96° (E) 12:42:23 434.975-435.025
SPROUT 26 Aug 12:43:26 12:46:55 24° 95° (E) 12:50:23 437.525
ESTCUBE 1 26 Aug 12:46:18 12:50:50 78° 286° (WNW) 12:55:23 437.505/2401.250
Gurwin Techsat 1B 26 Aug 12:49:33 12:51:12 11° 59° (ENE) 12:52:51 435.225
AUBIESAT-1 26 Aug 12:52:25 12:56:23 49° 292° (WNW) 13:00:02 437.475
JUGNU 26 Aug 12:56:52 12:58:39 11° 175° (S) 13:00:26 437.505
M-CUBED/EXP-1 PRIME 26 Aug 12:56:56 13:00:46 35° 294° (WNW) 13:04:18 437.505
AISAT 26 Aug 13:00:49 13:05:19 83° 104° (ESE) 13:09:46 437.250
JAS-2 26 Aug 13:01:22 13:06:23 53° 260° (W) 13:11:41 435.910
DANDE 26 Aug 13:07:33 13:11:56 24° 267° (W) 13:17:13 436.750
UKube-1 26 Aug 13:17:53 13:22:12 62° 102° (ESE) 13:26:28 .
QB50P1 26 Aug 13:18:39 13:20:00 11° 269° (W) 13:21:21 145.935-145.965
BUGSAT 1 26 Aug 13:21:13 13:24:48 26° 264° (W) 13:28:24 437.445
GONETS M04 26 Aug 13:23:26 13:32:01 61° 281° (W) 13:40:45
Oscar 19 26 Aug 13:26:16 13:31:17 55° 73° (ENE) 13:36:21 437.125/150
Cosmos 2499 26 Aug 13:32:38 13:40:50 62° 280° (W) 13:48:26 435.465 / 435.565
50 SAT 26 Aug 13:43:28 13:46:27 24° 289° (WNW) 13:49:27 437.505
PCSat 26 Aug 13:46:34 13:51:11 28° 308° (NW) 13:55:50 145.827
VELOX 1 26 Aug 13:48:48 13:52:44 31° 290° (WNW) 13:56:38 145.980
CUBEBUG 1 26 Aug 13:55:09 13:58:32 22° 292° (WNW) 14:01:53 437.445
AIST 2 26 Aug 14:03:59 14:07:29 26° 309° (NW) 14:11:00 435.215
AO-7 26 Aug 14:05:54 14:11:29 20° 53° (NE) 14:17:03 29.400- 29.500
DX 1 26 Aug 14:11:10 14:14:49 26° 291° (WNW) 14:18:26 434.975-435.025
RS-15 26 Aug 14:12:32 14:18:17 15° 265° (W) 14:24:00 29.354- 29.394
SPROUT 26 Aug 14:19:14 14:22:48 26° 291° (WNW) 14:26:20 437.525
Gurwin Techsat 1B 26 Aug 14:25:01 14:30:20 90° 236° (SW) 14:35:41 435.225
AO-85 26 Aug 14:35:53 14:39:43 31° 51° (NE) 14:43:18 145.980
O/OREOS (USA 219) 26 Aug 14:36:42 14:41:10 82° 110° (ESE) 14:45:43 437.305
ISS 26 Aug 14:36:42 14:38:28 14° 19° (NNE) 14:40:13 145.825
ITAMSAT 1 26 Aug 14:37:43 14:42:25 36° 69° (ENE) 14:47:07 435.822/435.867
ITUPSAT 1 26 Aug 14:38:10 14:41:23 18° 93° (E) 14:44:34 437.325
TISAT 1 26 Aug 14:42:51 14:47:03 67° 285° (WNW) 14:51:12 437.305
JUGNU 26 Aug 14:45:15 14:46:44 11° 186° (S) 14:48:13 437.505
UKube-1 26 Aug 14:56:09 14:57:41 12° 297° (WNW) 14:59:12 .
Oscar 19 26 Aug 15:07:46 15:10:56 16° 268° (W) 15:14:06 437.125/150
SWISSCUBE 26 Aug 15:10:57 15:15:32 45° 100° (E) 15:20:05 437.505
BEESAT 26 Aug 15:28:09 15:32:53 62° 102° (ESE) 15:37:35 436.000
GONETS M04 26 Aug 15:30:15 15:30:57 10° 303° (WNW) 15:31:39
MOZHAYETS 4 26 Aug 15:54:44 15:57:37 16° 93° (E) 16:00:30
AO-7 26 Aug 15:54:45 16:03:09 89° 72° (ENE) 16:11:33 29.400- 29.500
KKS-1 26 Aug 15:59:25 16:01:32 13° 92° (E) 16:03:39 437.445
ISS 26 Aug 16:12:12 16:15:28 63° 37° (NE) 16:18:43 145.825
ITUPSAT 1 26 Aug 16:14:53 16:19:24 44° 288° (WNW) 16:23:54 437.325
AO-85 26 Aug 16:16:48 16:19:54 21° 250° (WSW) 16:22:52 145.980
ITAMSAT 1 26 Aug 16:17:41 16:21:55 25° 265° (W) 16:26:11 435.822/435.867
HORYU 2 26 Aug 16:18:09 16:20:59 17° 65° (ENE) 16:23:48 437.375
SRMSAT 26 Aug 16:19:05 16:21:08 12° 181° (S) 16:23:11 437.500
O/OREOS (USA 219) 26 Aug 16:20:22 16:21:12 10° 308° (NW) 16:22:02 437.305
STARS 26 Aug 16:38:17 16:41:10 17° 93° (E) 16:44:01 437.465
SWISSCUBE 26 Aug 16:49:43 16:52:57 18° 295° (WNW) 16:56:11 437.505
Cosmos 2491 26 Aug 17:07:34 17:11:52 15° 76° (ENE) 17:16:10 435.465 / 435.565
BEESAT 26 Aug 17:07:43 17:10:07 14° 297° (WNW) 17:12:30 436.000
CUTE-I 26 Aug 17:10:57 17:13:21 13° 60° (ENE) 17:15:46 437.470
CUBESAT XI-V 26 Aug 17:11:39 17:14:01 14° 91° (E) 17:16:23 437.345
NOAA 15 26 Aug 17:15:07 17:18:40 19° 63° (ENE) 17:22:13 137.62
YUBILEINY 26 Aug 17:24:19 17:32:30 41° 74° (ENE) 17:40:34 435.215
GOMX 1 26 Aug 17:27:18 17:30:30 17° 63° (ENE) 17:33:48 467.674
MOZHAYETS 4 26 Aug 17:30:37 17:34:58 43° 288° (WNW) 17:39:18
KKS-1 26 Aug 17:34:03 17:38:24 52° 287° (WNW) 17:42:42 437.445
NOAA 18 26 Aug 17:38:13 17:42:28 23° 64° (ENE) 17:46:43 137.9125
DOVE 4 26 Aug 17:42:35 17:43:48 11° 60° (ENE) 17:45:01 437.250
BRITE-PL 26 Aug 17:43:00 17:47:34 49° 72° (ENE) 17:52:34 437.365/2234.400
ISS 26 Aug 17:50:14 17:51:32 12° 232° (SW) 17:52:51 145.825
AO-7 26 Aug 17:51:49 17:56:50 17° 269° (W) 18:01:52 29.400- 29.500
HORYU 2 26 Aug 17:52:54 17:57:10 44° 260° (W) 18:01:26 437.375
STARS 26 Aug 18:13:34 18:17:39 39° 289° (WNW) 18:21:43 437.465
Cosmos 2504 26 Aug 18:25:34 18:31:54 31° 73° (ENE) 18:38:08 435.465 / 435.565
Cubesat XI-IV 26 Aug 18:35:04 18:40:25 79° 74° (ENE) 18:45:46 437.490
BEESAT 2 26 Aug 18:46:44 18:49:18 16° 47° (NE) 18:51:53 435.950
CUBESAT XI-V 26 Aug 18:47:07 18:51:42 55° 287° (WNW) 18:56:18 437.345
CUTE-I 26 Aug 18:47:21 18:52:42 79° 257° (WSW) 18:58:03 437.470
LilacSat-2 26 Aug 18:52:28 18:56:16 59° 260° (W) 19:00:04 437.200
NOAA 15 26 Aug 18:52:51 18:57:58 54° 259° (W) 19:03:09 137.62
Cosmos 2491 26 Aug 18:58:33 19:07:15 85° 95° (E) 19:16:03 435.465 / 435.565
GOMX 1 26 Aug 19:03:03 19:07:58 59° 261° (W) 19:13:13 467.674
BEESAT 3 26 Aug 19:06:27 19:10:16 45° 55° (NE) 19:14:04 437.485
HO-68 26 Aug 19:15:19 19:21:37 34° 64° (ENE) 19:27:55 435.675
DOVE 4 26 Aug 19:15:27 19:20:34 86° 77° (ENE) 19:25:54 437.250
NOAA 18 26 Aug 19:17:29 19:22:47 46° 260° (W) 19:28:07 137.9125
SEEDS 26 Aug 19:18:01 19:19:12 11° 64° (ENE) 19:20:24 437.485
YUBILEINY 26 Aug 19:21:14 19:29:12 41° 273° (W) 19:37:06 435.215
BRITE-PL 26 Aug 19:23:20 19:26:25 17° 270° (W) 19:29:39 437.365/2234.400
CANX-2 26 Aug 19:34:24 19:38:01 29° 71° (ENE) 19:41:39 2200.000
STRAND 1 26 Aug 19:38:47 19:42:59 25° 95° (E) 19:47:09 437.568
CUTE 1.7 + AOD 2 26 Aug 19:40:43 19:44:22 29° 71° (ENE) 19:48:00 437.475
AAUSAT CUBESAT 2 26 Aug 19:51:24 19:53:36 14° 66° (ENE) 19:55:50 437.432
COMPASS 1 26 Aug 19:57:15 20:00:23 21° 69° (ENE) 20:03:31 437.405
CINEMA 3 26 Aug 20:04:50 20:09:50 79° 78° (ENE) 20:14:51 145.822/145.860
Cosmos 2504 26 Aug 20:18:41 20:25:20 41° 271° (W) 20:31:55 435.465 / 435.565
Cubesat XI-IV 26 Aug 20:19:21 20:21:02 11° 270° (W) 20:22:44 437.490
BEESAT 2 26 Aug 20:23:31 20:27:23 47° 243° (WSW) 20:31:13 435.950
Oscar 11 26 Aug 20:23:51 20:26:05 14° 65° (ENE) 20:28:19 145.826/435.025
FUNcube-1 26 Aug 20:29:21 20:31:58 16° 66° (ENE) 20:34:34 145.935
CUBEBUG 2 26 Aug 20:31:01 20:35:27 42° 73° (ENE) 20:39:48 437.445
UWE-3 26 Aug 20:31:38 20:35:32 28° 70° (ENE) 20:39:22 435.000/436.395/437.385
BEESAT 3 26 Aug 20:45:29 20:47:32 14° 251° (WSW) 20:49:35 437.485
AIST 2 26 Aug 20:48:41 20:51:02 15° 45° (NE) 20:53:24 435.215
ZACube-1 26 Aug 20:48:53 20:52:39 27° 70° (ENE) 20:56:22 437.345
AIST 1 26 Aug 20:49:46 20:54:05 52° 80° (E) 20:58:22
SEEDS 26 Aug 20:50:16 20:54:22 59° 259° (W) 20:58:29 437.485
PCSat 26 Aug 20:52:02 20:56:33 26° 51° (NE) 21:01:02 145.827
DOVE 4 26 Aug 20:58:30 20:58:54 10° 273° (W) 20:59:18 437.250
Cosmos 2491 26 Aug 20:59:26 21:05:12 19° 295° (WNW) 21:11:04 435.465 / 435.565
HO-68 26 Aug 21:02:18 21:09:07 45° 261° (W) 21:15:57 435.675
CANX-2 26 Aug 21:10:39 21:13:51 21° 265° (W) 21:17:05 2200.000
CUTE 1.7 + AOD 2 26 Aug 21:17:02 21:20:12 21° 266° (W) 21:23:22 437.475
STRAND 1 26 Aug 21:17:34 21:22:10 35° 291° (WNW) 21:26:46 437.568
AAUSAT CUBESAT 2 26 Aug 21:24:48 21:28:42 42° 262° (W) 21:32:38 437.432
COMPASS 1 26 Aug 21:32:14 21:35:46 27° 264° (W) 21:39:19 437.405
DELFI C3 26 Aug 21:37:49 21:41:25 35° 72° (ENE) 21:45:01 145.870
GONETS M04 26 Aug 21:42:43 21:45:23 11° 58° (ENE) 21:48:01
HUMSAT D 26 Aug 21:45:10 21:48:22 22° 69° (ENE) 21:51:33 437.325/437.525
CINEMA 3 26 Aug 21:46:27 21:47:27 11° 271° (W) 21:48:28 145.822/145.860
Oscar 11 26 Aug 21:57:37 22:01:47 49° 261° (W) 22:05:59 145.826/435.025
AUBIESAT-1 26 Aug 22:03:24 22:06:14 16° 60° (ENE) 22:09:03 437.475
FUNcube-1 26 Aug 22:03:32 22:07:50 46° 261° (W) 22:12:04 145.935
M-CUBED/EXP-1 PRIME 26 Aug 22:07:19 22:10:51 22° 62° (ENE) 22:14:24 437.505
UWE-3 26 Aug 22:08:06 22:11:55 26° 264° (W) 22:15:42 435.000/436.395/437.385
CUBEBUG 2 26 Aug 22:08:59 22:12:11 18° 267° (W) 22:15:22 437.445
PRISM 26 Aug 22:10:04 22:14:15 70° 284° (WNW) 22:18:23 437.425
ZACube-1 26 Aug 22:25:07 22:28:51 25° 264° (W) 22:32:32 437.345
AIST 2 26 Aug 22:25:46 22:29:54 62° 243° (WSW) 22:34:02 435.215
AIST 1 26 Aug 22:29:35 22:31:08 12° 276° (W) 22:32:41
PCSat 26 Aug 22:34:59 22:40:06 45° 249° (WSW) 22:45:13 145.827
UNISAT 6 26 Aug 22:40:55 22:44:20 23° 95° (E) 22:47:43 437.425
VELOX 1 26 Aug 23:09:14 23:12:10 18° 66° (ENE) 23:15:08 145.980
O/OREOS (USA 219) 26 Aug 23:10:40 23:12:47 13° 54° (NE) 23:14:54 437.305
SO-50 26 Aug 23:10:54 23:14:10 18° 109° (ESE) 23:17:26 436.795
CUBEBUG 1 26 Aug 23:13:18 23:16:46 23° 68° (ENE) 23:20:15 437.445
DELFI C3 26 Aug 23:14:08 23:16:23 15° 267° (W) 23:18:38 145.870
ANTELSAT 26 Aug 23:17:18 23:21:33 61° 100° (E) 23:25:44 437.575/2403.000
HUMSAT D 26 Aug 23:20:15 23:23:50 28° 264° (W) 23:27:24 437.325/437.525
Cosmos 2499 26 Aug 23:25:40 23:32:14 39° 75° (ENE) 23:38:50 435.465 / 435.565
DX 1 26 Aug 23:29:37 23:32:46 20° 67° (ENE) 23:35:56 434.975-435.025
GONETS M04 26 Aug 23:35:18 23:44:08 65° 80° (E) 23:52:53
AUBIESAT-1 26 Aug 23:35:40 23:40:11 56° 255° (WSW) 23:44:46 437.475
SPROUT 26 Aug 23:36:18 23:39:01 17° 66° (ENE) 23:41:45 437.525
POPSAT HIP 1 26 Aug 23:37:39 23:39:30 13° 92° (E) 23:41:21 437.405
M-CUBED/EXP-1 PRIME 26 Aug 23:40:39 23:45:02 41° 257° (WSW) 23:49:31 437.505
ESTCUBE 1 26 Aug 23:44:03 23:48:32 79° 74° (ENE) 23:53:02 437.505/2401.250
CUSAT 1 26 Aug 23:46:32 23:49:09 37° 93° (E) 23:52:14 437.405
TIGRISAT 26 Aug 23:48:35 23:52:49 61° 285° (WNW) 23:56:59 435.000
AISAT 26 Aug 23:56:23 00:00:46 60° 74° (ENE) 00:05:11 437.250
DUCHIFAT 1 27 Aug 00:05:11 00:08:36 24° 95° (E) 00:11:59 145.980
QB50P2 27 Aug 00:06:13 00:09:57 30° 97° (E) 00:13:39 145.880/145.840
POLYITAN 1 27 Aug 00:08:44 00:12:28 30° 97° (E) 00:16:11 437.675
RS-15 27 Aug 00:08:55 00:16:37 21° 99° (E) 00:24:31 29.354- 29.394
JAS-2 27 Aug 00:10:29 00:15:59 24° 94° (E) 00:21:49 435.910
UKube-1 27 Aug 00:10:49 00:14:54 42° 72° (ENE) 00:19:00 .
UNISAT 6 27 Aug 00:17:24 00:21:01 27° 290° (WNW) 00:24:36 437.425
NANOSAT C BR1 27 Aug 00:18:09 00:22:03 36° 98° (E) 00:25:55 145.865
50 SAT 27 Aug 00:18:24 00:21:58 72° 260° (W) 00:25:32 437.505
DANDE 27 Aug 00:34:50 00:37:15 36° 95° (E) 00:39:46 436.750
VELOX 1 27 Aug 00:44:07 00:48:18 41° 261° (W) 00:52:31 145.980
O/OREOS (USA 219) 27 Aug 00:48:06 00:52:40 67° 251° (WSW) 00:57:14 437.305
CUBEBUG 1 27 Aug 00:49:02 00:52:53 29° 264° (W) 00:56:46 437.445
SO-50 27 Aug 00:49:32 00:54:15 51° 305° (NW) 00:58:59 436.795
ANTELSAT 27 Aug 00:56:22 00:57:42 11° 297° (WNW) 00:59:02 437.575/2403.000
QB50P1 27 Aug 01:01:28 01:05:38 62° 286° (WNW) 01:09:46 145.935-145.965
BUGSAT 1 27 Aug 01:03:49 01:07:50 47° 100° (E) 01:11:46 437.445
DX 1 27 Aug 01:04:43 01:08:42 35° 262° (W) 01:12:43 434.975-435.025
SPROUT 27 Aug 01:10:32 01:14:36 41° 261° (W) 01:18:42 437.525
POPSAT HIP 1 27 Aug 01:11:28 01:15:32 48° 287° (WNW) 01:19:34 437.405
Cosmos 2499 27 Aug 01:19:04 01:25:08 32° 273° (W) 01:31:15 435.465 / 435.565
PHONESAT 2.4 27 Aug 01:23:19 01:24:31 12° 146° (SE) 01:25:43 2401.200-2431.200
TISAT 1 27 Aug 01:32:32 01:36:46 72° 75° (ENE) 01:41:01 437.305
GONETS M04 27 Aug 01:33:24 01:40:09 25° 278° (W) 01:46:54
AISAT 27 Aug 01:36:13 01:37:36 11° 269° (W) 01:38:59 437.250
Oscar 19 27 Aug 01:39:59 01:43:59 22° 94° (E) 01:47:56 437.125/150
DUCHIFAT 1 27 Aug 01:40:45 01:44:13 25° 291° (WNW) 01:47:39 145.980
QB50P2 27 Aug 01:42:24 01:45:33 21° 292° (WNW) 01:48:42 145.880/145.840
ITUPSAT 1 27 Aug 01:43:50 01:47:05 19° 65° (ENE) 01:50:22 437.325
POLYITAN 1 27 Aug 01:44:57 01:48:05 20° 292° (WNW) 01:51:10 437.675
UKube-1 27 Aug 01:48:36 01:51:07 15° 267° (W) 01:53:40 .
JAS-2 27 Aug 01:54:31 02:01:12 62° 287° (WNW) 02:08:36 435.910
NANOSAT C BR1 27 Aug 01:54:42 01:57:29 17° 293° (WNW) 02:00:14 145.865
RS-15 27 Aug 02:15:43 02:27:13 89° 119° (ESE) 02:39:26 29.354- 29.394
SWISSCUBE 27 Aug 02:15:54 02:20:24 44° 72° (ENE) 02:24:55 437.505
BEESAT 27 Aug 02:32:56 02:37:37 60° 73° (ENE) 02:42:18 436.000
BUGSAT 1 27 Aug 02:40:45 02:42:45 13° 295° (WNW) 02:44:45 437.445
Gurwin Techsat 1B 27 Aug 02:42:54 02:47:54 40° 98° (E) 02:52:51 435.225
ITAMSAT 1 27 Aug 02:53:26 02:56:01 14° 91° (E) 02:58:36 435.822/435.867
MOZHAYETS 4 27 Aug 02:56:03 02:58:26 14° 64° (ENE) 03:00:48
KKS-1 27 Aug 02:57:16 02:58:39 11° 62° (ENE) 03:00:02 437.445
PHONESAT 2.4 27 Aug 02:57:30 03:00:27 59° 160° (SSE) 03:03:25 2401.200-2431.200
Oscar 19 27 Aug 03:18:33 03:23:26 42° 289° (WNW) 03:28:17 437.125/150
ITUPSAT 1 27 Aug 03:20:02 03:24:34 44° 261° (W) 03:29:08 437.325
STARS 27 Aug 03:34:21 03:36:37 14° 64° (ENE) 03:38:54 437.465
